STARLINK-2134 (47407 NORAD) Tracking and Keplerian Element Data

This shows tracking and keplerian element data for the satellite.

Feedback or suggestion? Click here.




ElementValue
Catalog47407
NameSTARLINK-2134
Epoch Orbit177
Epoch Day101.91668981
Epoch Year2021
RAAN171.94
Inclination53.0535
Eccentricity0.000406
Argument of Perigee10.1059
Mean Anonmoly149.514
Mean Motion15.62827293
Decay Rate0.00012045
L11 47407U 21005BL 21101.91668981 .00012045 00000-0 13678-3 0 9993
L22 47407 53.0535 171.9400 0004060 10.1059 149.5140 15.62827293 1777

Live tracking and technical data element details for STARLINK-2134 (NORAD 47407). STARLINK-2134 can be tracked NOW for your location showing map with azimuth and elevation plus other details from your city location.

Track the satellite on the map from your city or location and see movement details for azimuth, elevation, latitude, longitude, range, height, and movement on the map or in text.







IsCatalogInMostPopularTable: catalog: 47407, numindb: 17
Update: records affected: 1



GetName: 47407 STARLINK-2134

Hit Count: updated at: Tue, 13 Apr 2021 05:02:37 GMT